Location: Izdebno
(52.6670°N, 16.2170°E)
Time: 14:17:12
(UTC+02:00)

A-11 Canister half - Pass Details

Date: 22 February 2024
Orbit: 1525 x 1683 km, 47.3° (Epoch: 24 April)

Event Time Altitude Azimuth Distance (km) Brightness Sun altitude
Exits shadow 05:10:31 18° 237° (WSW) 3,144 10.1 -17.1°
Maximum altitude 05:11:25 18° 230° (SW) 3,129 10.1 -16.9°
Drops below altitude 10° 05:17:04 10° 192° (SSW) 3,729 10.9 -16.1°
Sets 05:21:27 0° 175° (S) 4,734 11.6 -15.4°
